User: anonymous
Location: Meriden
(44.0740°N, 93.3870°W)
Time: 14:54:25
(UTC-05:00)
Language:

AO-27 - Orbit

View from above orbital plane
View from above orbital plane
View from above satellite
View from above satellite

Ground track
Ground track

The orbit data is extracted from the following two-line orbital elements,

1 22825U 93061C   14206.48306402  .00000020  00000-0  24936-4 0  7222
2 22825 098.6640 152.3635 0008655 177.7604 300.0777 14.29730887 86259
Epoch (UTC): 25 July 2014 11:35:36
Eccentricity: 0.0008655
inclination: 98.6640°
perigee height: 786 km
apogee height: 799 km
right ascension of ascending node: 152.3635°
argument of perigee: 177.7604°
revolutions per day: 14.29730887
mean anomaly at epoch: 300.0777°
orbit number at epoch: 8625

The dashed part of the orbit path shows where the satellite is in the earth's shadow,  

DLR